TimeCST,TemperatureF,Dew PointF,Humidity,Sea Level PressureIn,VisibilityMPH,Wind Direction,Wind SpeedMPH,Gust SpeedMPH,PrecipitationIn,Events,Conditions,WindDirDegrees,DateUTC
12:15 AM,5.0,-0.4,78,30.39,10.0,NE,8.1,-,N/A,,Clear,50,2013-02-21 06:15:00
12:35 AM,6.8,1.4,79,30.40,10.0,ENE,3.5,-,N/A,,Clear,60,2013-02-21 06:35:00
12:55 AM,8.6,1.4,73,30.40,10.0,ENE,6.9,-,N/A,,Clear,60,2013-02-21 06:55:00
1:15 AM,5.0,-0.4,78,30.40,10.0,ENE,5.8,-,N/A,,Clear,70,2013-02-21 07:15:00
1:35 AM,5.0,1.4,85,30.40,10.0,Calm,Calm,-,N/A,,Clear,0,2013-02-21 07:35:00
1:55 AM,5.0,-0.4,78,30.40,10.0,East,3.5,-,N/A,,Clear,80,2013-02-21 07:55:00
2:15 AM,5.0,-0.4,78,30.41,10.0,East,4.6,-,N/A,,Clear,80,2013-02-21 08:15:00
2:35 AM,3.2,-2.2,78,30.41,10.0,ENE,3.5,-,N/A,,Clear,70,2013-02-21 08:35:00
2:55 AM,1.4,-2.2,85,30.41,10.0,NE,3.5,-,N/A,,Clear,40,2013-02-21 08:55:00
3:15 AM,3.2,-0.4,85,30.41,10.0,Calm,Calm,-,N/A,,Clear,0,2013-02-21 09:15:00
3:35 AM,-0.4,-4.0,85,30.42,10.0,NE,3.5,-,N/A,,Clear,40,2013-02-21 09:35:00
3:55 AM,-2.2,-5.8,85,30.42,10.0,NE,3.5,-,N/A,,Clear,50,2013-02-21 09:55:00
4:15 AM,-4.0,-5.8,92,30.42,10.0,NNE,3.5,-,N/A,,Clear,30,2013-02-21 10:15:00
4:35 AM,-4.0,-7.6,85,30.43,10.0,Calm,Calm,-,N/A,,Clear,0,2013-02-21 10:35:00
4:55 AM,-5.8,-7.6,92,30.42,10.0,Calm,Calm,-,N/A,,Clear,0,2013-02-21 10:55:00
5:15 AM,-5.8,-9.4,84,30.41,10.0,NE,4.6,-,N/A,,Clear,40,2013-02-21 11:15:00
6:15 AM,-0.4,-4.0,85,30.33,10.0,NE,9.2,-,N/A,,Clear,40,2013-02-21 12:15:00
6:35 AM,-0.4,-4.0,85,30.32,10.0,NE,8.1,-,N/A,,Clear,50,2013-02-21 12:35:00
6:55 AM,1.4,-0.4,92,30.34,10.0,ENE,4.6,-,N/A,,Clear,70,2013-02-21 12:55:00
7:15 AM,3.2,-0.4,85,30.44,10.0,SSW,6.9,-,N/A,,Clear,200,2013-02-21 13:15:00
7:35 AM,3.2,-0.4,85,30.44,10.0,Calm,Calm,-,N/A,,Clear,0,2013-02-21 13:35:00
7:55 AM,1.4,-2.2,85,30.43,10.0,Calm,Calm,-,N/A,,Clear,0,2013-02-21 13:55:00
8:15 AM,1.4,-4.0,78,30.43,10.0,Calm,Calm,-,N/A,,Clear,0,2013-02-21 14:15:00
8:35 AM,1.4,-2.2,85,30.41,10.0,NNE,5.8,-,N/A,,Clear,30,2013-02-21 14:35:00
8:55 AM,1.4,-2.2,85,30.41,10.0,NE,4.6,-,N/A,,Clear,40,2013-02-21 14:55:00
9:15 AM,3.2,-0.4,85,30.40,10.0,NNE,6.9,-,N/A,,Clear,30,2013-02-21 15:15:00
9:35 AM,5.0,1.4,85,30.40,10.0,NE,5.8,-,N/A,,Clear,40,2013-02-21 15:35:00
9:55 AM,8.6,1.4,73,30.38,10.0,ENE,4.6,-,N/A,,Clear,70,2013-02-21 15:55:00
10:15 AM,12.2,3.2,67,30.38,10.0,East,9.2,-,N/A,,Clear,90,2013-02-21 16:15:00
10:35 AM,12.2,3.2,67,30.38,10.0,East,8.1,-,N/A,,Clear,90,2013-02-21 16:35:00
10:55 AM,14.0,3.2,62,30.38,10.0,East,10.4,-,N/A,,Clear,80,2013-02-21 16:55:00
11:15 AM,14.0,3.2,62,30.38,10.0,East,6.9,-,N/A,,Clear,100,2013-02-21 17:15:00
11:35 AM,15.8,5.0,62,30.38,10.0,East,8.1,-,N/A,,Clear,100,2013-02-21 17:35:00
11:55 AM,17.6,5.0,58,30.37,10.0,ENE,4.6,-,N/A,,Clear,70,2013-02-21 17:55:00
12:15 PM,17.6,5.0,58,30.35,10.0,ENE,6.9,-,N/A,,Clear,60,2013-02-21 18:15:00
12:35 PM,17.6,6.8,63,30.34,10.0,ENE,3.5,-,N/A,,Clear,70,2013-02-21 18:35:00
12:55 PM,17.6,6.8,63,30.33,10.0,East,5.8,-,N/A,,Clear,80,2013-02-21 18:55:00
1:15 PM,19.4,6.8,58,30.32,10.0,NE,6.9,-,N/A,,Clear,50,2013-02-21 19:15:00
1:35 PM,19.4,8.6,63,30.30,10.0,NE,5.8,-,N/A,,Clear,50,2013-02-21 19:35:00
1:55 PM,19.4,8.6,63,30.30,10.0,ENE,5.8,-,N/A,,Clear,60,2013-02-21 19:55:00
2:15 PM,19.4,8.6,63,30.29,10.0,NNE,6.9,-,N/A,,Clear,20,2013-02-21 20:15:00
2:55 PM,21.2,8.6,58,30.29,10.0,NE,5.8,-,N/A,,Clear,50,2013-02-21 20:55:00
3:15 PM,21.2,8.6,58,30.28,10.0,NE,8.1,-,N/A,,Clear,50,2013-02-21 21:15:00
3:35 PM,21.2,10.4,63,30.27,10.0,ENE,5.8,-,N/A,,Clear,60,2013-02-21 21:35:00
3:55 PM,21.2,10.4,63,30.27,10.0,ENE,5.8,-,N/A,,Clear,70,2013-02-21 21:55:00
4:15 PM,21.2,10.4,63,30.26,10.0,ENE,5.8,-,N/A,,Clear,70,2013-02-21 22:15:00
4:35 PM,21.2,10.4,63,30.26,10.0,ENE,9.2,-,N/A,,Clear,60,2013-02-21 22:35:00
4:55 PM,21.2,10.4,63,30.24,10.0,ENE,10.4,-,N/A,,Clear,60,2013-02-21 22:55:00
5:15 PM,21.2,10.4,63,30.23,10.0,ENE,8.1,-,N/A,,Clear,60,2013-02-21 23:15:00
5:35 PM,21.2,10.4,63,30.21,10.0,ENE,5.8,-,N/A,,Clear,60,2013-02-21 23:35:00
5:55 PM,21.2,10.4,63,30.21,10.0,ENE,6.9,-,N/A,,Clear,70,2013-02-21 23:55:00
6:15 PM,21.2,10.4,63,30.20,10.0,ENE,5.8,-,N/A,,Clear,70,2013-02-22 00:15:00
6:35 PM,21.2,10.4,63,30.19,10.0,NE,5.8,-,N/A,,Clear,50,2013-02-22 00:35:00
6:55 PM,21.2,12.2,68,30.18,10.0,NE,6.9,-,N/A,,Clear,40,2013-02-22 00:55:00
7:15 PM,21.2,12.2,68,30.17,10.0,NNE,4.6,-,N/A,,Clear,30,2013-02-22 01:15:00
7:35 PM,21.2,12.2,68,30.16,10.0,NNE,4.6,-,N/A,,Clear,30,2013-02-22 01:35:00
7:55 PM,19.4,12.2,74,30.16,10.0,NE,3.5,-,N/A,,Clear,40,2013-02-22 01:55:00
8:15 PM,21.2,12.2,68,30.15,10.0,NE,5.8,-,N/A,,Clear,40,2013-02-22 02:15:00
8:35 PM,21.2,12.2,68,30.14,10.0,NE,5.8,-,N/A,,Scattered Clouds,40,2013-02-22 02:35:00
8:55 PM,21.2,12.2,68,30.14,10.0,NE,4.6,-,N/A,,Scattered Clouds,50,2013-02-22 02:55:00
9:15 PM,21.2,12.2,68,30.14,10.0,ENE,3.5,-,N/A,,Clear,70,2013-02-22 03:15:00
9:35 PM,21.2,12.2,68,30.13,10.0,Calm,Calm,-,N/A,,Clear,0,2013-02-22 03:35:00
9:55 PM,21.2,12.2,68,30.13,10.0,SE,3.5,-,N/A,,Clear,140,2013-02-22 03:55:00
10:15 PM,21.2,12.2,68,30.12,10.0,Calm,Calm,-,N/A,,Clear,0,2013-02-22 04:15:00
10:35 PM,19.4,10.4,68,30.12,10.0,Calm,Calm,-,N/A,,Clear,0,2013-02-22 04:35:00
10:55 PM,19.4,10.4,68,30.11,10.0,Calm,Calm,-,N/A,,Mostly Cloudy,0,2013-02-22 04:55:00
11:15 PM,19.4,10.4,68,30.11,10.0,Calm,Calm,-,N/A,,Overcast,0,2013-02-22 05:15:00
11:35 PM,19.4,10.4,68,30.10,10.0,Calm,Calm,-,N/A,,Overcast,0,2013-02-22 05:35:00
11:55 PM,19.4,12.2,74,30.10,10.0,ENE,3.5,-,N/A,,Overcast,70,2013-02-22 05:55:00